パンスターズ彗星

C/2016 Q2 ( PanSTARRS )

English version
Home page
Updated on June 13, 2020

---------------------------------------------------------------------

・ プロフィール

発見日 2016年8月26日
発見光度 21.6等
発見者 Pan-STARRS 1 telescope (Haleakala)

・ 写真集

・ 軌道要素

Epoch 2021 May 26.0 TT = JDT 2459360.5
T 2021 May 11.89205 TT                                  Rudenko
q   7.0818534            (2000.0)            P               Q
z  -0.0000970      Peri.   84.52924     -0.12667243     -0.80693015
 +/-0.0000018      Node   322.29573     -0.66688063     +0.49981705
e   1.0006869      Incl.  109.38820     +0.73431895     +0.31471678
From 143 observations 2016 Aug. 26-2020 Feb. 26, mean residual 0".6.

・ 星図

・ 光度変化

        m1 = 9.5 + 5 logΔ + 5.0 log r

---------------------------------------------------------------------

軌道要素はM.P.E.C. 2020-G65に掲載されたものです。
星図はステラナビゲータ Ver.10 (アストロアーツ) で作成したものです。
光度グラフはComet for Windowsで作成したものです。

---------------------------------------------------------------------

Copyright(C) Seiichi Yoshida (comet@aerith.net). All rights reserved.